Showing default

OPS 9322 (IDSCS 9), 2649

Orbit data source: Space-Track

OPS 9322 (IDSCS 9), 2649 is a payload satellite owned by USAF SSD (US) in GEO that was launched on Wed, 18 Jan 1967 UTC via a TITAN IIIC launch vehicle from the Air Force Eastern Test Range (AFETR). Payload-class satellites include a variety of spacecraft equipped with specific instruments for various scientific and technological missions. These include communications satellites like Starlink; space stations such as the ISS; scientific satellites like the Hubble; Earth observation satellites from companies like Planet Labs, Umbra, and HawkEye 360; GPS; miniature CubeSats for education and research; and military/defense satellites.

Loading next visibility...
Identifier
2649, 1967-003B
Orbit
GEO
Country
Flag of USUS
Related business
Manufacturer
Philco-Ford WDL
Mission
Non-operational spacecraft
Bus & Motor
IDCSP, Unknown motor
Mass
45 kg wet, 45 kg dry
Launch date (UTC)
1967-01-18 (59 years ago)
Launch vehicle
TITAN IIIC
Launch site
Air Force Eastern Test Range (AFETR)
Object type
Payload
Rocket body
Debris
Shape & HBR
Unknown
Radar Cross Section
Medium (>0.1 m² and <1 m²)

Expand to show TLE details & history
Last TLE update: 19 hours ago

TLE from 19 hours ago
0 OPS 9322 (IDSCS 9)
1 02649U 67003B   26125.61709002 -.00000066  00000-0  00000-0 0  9991
2 02649   8.2262  44.9559 0033234 118.1826 117.5894  1.08281644138978
Epoch: 2026-05-05T14:48Z
TLE epoch observation values (Epoch: 2026-05-05T14:48:36.577Z)
Latitude
-6.83382°
Longitude
-164.84725°
Altitude
33,742.819 km
Speed
3.15 km/s
True Right ascension
18h 43m 10s
True Declination
-6° 49' 36"
Sunlit
Object was in daylight at epoch
Visualization orbit readout
Latitude
Unknown
Longitude
Unknown
Altitude
Unknown
Speed
Unknown
Apparent Right ascension
Unknown
Apparent Declination
Unknown
Sunlit
N/A
Visualization observer readout
Local Sidereal Time
18:07:08
Azimuth
Unknown
Elevation
Unknown
Doppler factor
Unknown
Orbital elements
Apogee altitude
33,814.951 km
Perigee altitude
33,548.681 km
Semi-major axis
40,059.953 km
Eccentricity
0.00332
Inclination
8.2262°
RAAN
44.9559°
Arg. of periapsis
118.1826°
True anomaly
117.92628°
Mean anomaly
117.5894°
Eccentric anomaly
117.7579°
Mean motion
0.27069 °/min
Orbital period
1,329.92 mins
BSTAR
0
Loading maneuver chart data...
Computing Atmospheric mass density...
Loading historical data...
Loading historical data...
Loading historical data...
Loading historical data...
Loading historical data...
Loading historical data...
Loading historical data...

Documentation

Showing up to 5 results
|